Regional Weather Roundup
Issued by NWS

Home | Current Version | Previous Version | Graphics & Text | Print | Product List | Glossary On
Versions: 1 2 3 4 5 6 7 8 9 10 11 12 13 14 15 16 17 18 19 20 21 22 23 24 25 26 27 28 29 30 31 32 33 34 35 36 37 38 39 40 41 42 43 44 45 46 47 48 49 50
180
ASUS43 KTOP 060208
RWRKS

WEATHER ROUNDUP FOR KANSAS
NATIONAL WEATHER SERVICE GOODLAND KS
800 PM CST FRI FEB 05 2016

NOTE:  "FAIR" INDICATES FEW OR NO CLOUDS BELOW 12,000 FEET WITH NO
SIGNIFICANT WEATHER AND/OR OBSTRUCTIONS TO VISIBILITY.

KSZ001>006-013>018-027>032-041>047-060300-
NORTHWEST KANSAS

CITY           SKY/WX    TMP DP  RH WIND       PRES   REMARKS
GOODLAND       CLEAR     24  17  74 NW10      30.28R WCI  14
HAYS           PTCLDY    30  19  64 NW8       30.28S
HILL CITY      CLEAR     31  24  75 NW8       30.28S
RUSSELL        CLEAR     32  27  81 NW10      30.26S WCI  24
$$

KSZ061>065-074>080-084>089-060300-
SOUTHWEST KANSAS

CITY           SKY/WX    TMP DP  RH WIND       PRES   REMARKS
DODGE CITY     CLEAR     29  23  78 NW9       30.29R
ELKHART          N/A     33  16  49 NW7         N/A
GARDEN CITY    CLEAR     29  22  75 NW8       30.29S
GREAT BEND     CLEAR     32  21  64 NW7       30.28S
LIBERAL        CLEAR     28  16  59 NW6       30.31S
PRATT          CLEAR     29  21  72 NW9       30.29R
$$

KSZ066>073-081>083-090>101-060300-
SOUTHEAST KANSAS

CITY           SKY/WX    TMP DP  RH WIND       PRES   REMARKS
CHANUTE        MOCLDY    40  24  53 SE8       30.26F
COFFEYVILLE    CLOUDY    43  24  47 S7        30.28S
HUTCHINSON     PTCLDY    35  20  54 NW9       30.27R
MEDICINE LODGE   N/A     35  23  61 NW7       30.28S
NEWTON         PTCLDY    37  19  48 NW3       30.26F
PARSONS        CLOUDY    45  24  43 SE5       30.28S
WICHITA INTL   PTCLDY    37  23  56 NW3       30.26R
WICHITA JABRA  MOCLDY    38  24  57 NW3       30.25S
WICHITA MCCONL PTCLDY    41  24  51 NW5       30.25S
WINFIELD       CLOUDY    42  30  62 SW6       30.27R
$$

KSZ007>012-019>026-033>040-048>060-102>105-060300-
NORTHEAST KANSAS

CITY           SKY/WX    TMP DP  RH WIND       PRES   REMARKS
CONCORDIA      CLEAR     31  25  78 W7        30.26R
EMPORIA        CLOUDY    37  23  56 SE7       30.25S
LAWRENCE       CLOUDY    32  23  69 CALM      30.28F
MANHATTAN      CLOUDY    34  23  64 SW3       30.27R
MARYSVILLE     CLEAR     34  27  75 W5        30.26R
OLATHE IND     MOCLDY    33  23  66 E5        30.28S
OLATHE EXE     CLEAR     34  22  61 CALM      30.27S
SALINA         CLEAR     33  22  63 W8        30.28R
TOPEKA BILLARD CLOUDY    34  24  67 CALM      30.27F
TOPEKA FORBES  CLOUDY    34  23  64 E3        30.26F
$$




USA.gov is the U.S. government's official web portal to all federal, state and local government web resources and services.